| time (UTC) | temp F | wind direction | speed MPH | gust MPH | rain 1hr in | rain 24hr in | rain mn in | humidity % | barometer mb |
| 20260905145008 | 89 | 148 | 0.0 | 1.0 | 0.00 | 0.00 | 0.00 | 71 | 1013.3 |
| 20260905144504 | 89 | 266 | 2.0 | 3.0 | 0.00 | 0.00 | 0.00 | 72 | 1013.4 |
| 20260905144003 | 89 | 276 | 4.0 | 6.0 | 0.00 | 0.00 | 0.00 | 71 | 1013.1 |
| 20260905143501 | 89 | 186 | 2.0 | 3.0 | 0.00 | 0.00 | 0.00 | 73 | 1013.3 |
| 20260905142956 | 88 | 217 | 2.0 | 3.0 | 0.00 | 0.00 | 0.00 | 75 | 1013.2 |
| 20260905142455 | 88 | 192 | 2.0 | 3.0 | 0.00 | 0.00 | 0.00 | 75 | 1013.1 |
| 20260905141951 | 88 | 257 | 2.0 | 3.0 | 0.00 | 0.00 | 0.00 | 75 | 1013.2 |
| 20260905141445 | 89 | 160 | 0.0 | 2.0 | 0.00 | 0.00 | 0.00 | 74 | 1013.2 |
| 20260905140942 | 88 | 180 | 1.0 | 1.0 | 0.00 | 0.00 | 0.00 | 76 | 1013.2 |
| 20260905140437 | 87 | 132 | 0.0 | 1.0 | 0.00 | 0.00 | 0.00 | 79 | 1013.1 |
| 20260905135935 | 86 | 180 | 1.0 | 2.0 | 0.00 | 0.00 | 0.00 | 80 | 1013.1 |
| 20260905135431 | 85 | 177 | 1.0 | 1.0 | 0.00 | 0.00 | 0.00 | 81 | 1013.2 |
| 20260905134927 | 85 | 103 | 2.0 | 2.0 | 0.00 | 0.00 | 0.00 | 81 | 1013.1 |
| 20260905134426 | 85 | 189 | 2.0 | 2.0 | 0.00 | 0.00 | 0.00 | 82 | 1012.8 |
| 20260905133920 | 84 | 132 | 0.0 | 1.0 | 0.00 | 0.00 | 0.00 | 83 | 1012.9 |
| 20260905133420 | 84 | 206 | 1.0 | 2.0 | 0.00 | 0.00 | 0.00 | 83 | 1013.0 |
| 20260905132920 | 84 | 85 | 1.0 | 2.0 | 0.00 | 0.00 | 0.00 | 84 | 1012.9 |
| 20260905132415 | 83 | 78 | 3.0 | 4.0 | 0.00 | 0.00 | 0.00 | 84 | 1012.9 |
| 20260905131910 | 83 | 56 | 1.0 | 2.0 | 0.00 | 0.00 | 0.00 | 85 | 1013.1 |
| 20260905131406 | 83 | 67 | 3.0 | 3.0 | 0.00 | 0.00 | 0.00 | 85 | 1013.0 |
| 20260905130900 | 83 | 94 | 2.0 | 3.0 | 0.00 | 0.00 | 0.00 | 86 | 1013.0 |
| 20260905130359 | 82 | 83 | 1.0 | 2.0 | 0.00 | 0.00 | 0.00 | 86 | 1013.0 |
| 20260905125855 | 82 | 93 | 2.0 | 2.0 | 0.00 | 0.00 | 0.00 | 87 | 1012.8 |
| 20260905125349 | 82 | 110 | 1.0 | 2.0 | 0.00 | 0.00 | 0.00 | 88 | 1012.8 |
| 20260905124845 | 82 | 72 | 2.0 | 3.0 | 0.00 | 0.00 | 0.00 | 88 | 1012.9 |
| 20260905124342 | 81 | 65 | 2.0 | 2.0 | 0.00 | 0.00 | 0.00 | 89 | 1012.7 |
| 20260905123841 | 80 | 178 | 2.0 | 2.0 | 0.00 | 0.00 | 0.00 | 89 | 1012.4 |
| 20260905123339 | 80 | 95 | 2.0 | 2.0 | 0.00 | 0.00 | 0.00 | 90 | 1012.7 |
| 20260905122838 | 80 | 114 | 2.0 | 2.0 | 0.00 | 0.00 | 0.00 | 90 | 1012.4 |
| 20260905122337 | 80 | 77 | 2.0 | 2.0 | 0.00 | 0.00 | 0.00 | 90 | 1012.4 |
| 20260905121833 | 80 | 353 | 2.0 | 3.0 | 0.00 | 0.00 | 0.00 | 89 | 1012.4 |
| 20260905121330 | 80 | 102 | 1.0 | 2.0 | 0.00 | 0.00 | 0.00 | 89 | 1012.4 |
| 20260905120828 | 80 | 221 | 2.0 | 2.0 | 0.00 | 0.00 | 0.00 | 89 | 1012.4 |
| 20260905120323 | 80 | 105 | 2.0 | 2.0 | 0.00 | 0.00 | 0.00 | 89 | 1012.2 |
| 20260905115818 | 81 | 196 | 0.0 | 0.0 | 0.00 | 0.00 | 0.00 | 88 | 1012.1 |
| 20260905115317 | 81 | 87 | 2.0 | 2.0 | 0.00 | 0.00 | 0.00 | 89 | 1012.1 |
| 20260905114817 | 80 | 122 | 2.0 | 2.0 | 0.00 | 0.00 | 0.00 | 89 | 1011.9 |
| 20260905114316 | 81 | 118 | 0.0 | 1.0 | 0.00 | 0.00 | 0.00 | 88 | 1012.0 |
| 20260905113815 | 81 | 159 | 0.0 | 0.0 | 0.00 | 0.00 | 0.00 | 88 | 1011.7 |
| 20260905113312 | 81 | 139 | 0.0 | 1.0 | 0.00 | 0.00 | 0.00 | 88 | 1011.8 |
| 20260905112807 | 81 | 71 | 2.0 | 3.0 | 0.00 | 0.00 | 0.00 | 88 | 1011.7 |
| 20260905112305 | 81 | 111 | 2.0 | 2.0 | 0.00 | 0.00 | 0.00 | 89 | 1011.7 |
| 20260905111756 | 81 | 138 | 1.0 | 1.0 | 0.00 | 0.00 | 0.00 | 89 | 1011.7 |
| 20260905111250 | 80 | 122 | 1.0 | 1.0 | 0.00 | 0.00 | 0.00 | 89 | 1011.6 |
| 20260905110750 | 80 | 122 | 1.0 | 1.0 | 0.00 | 0.00 | 0.00 | 89 | 1011.6 |
| 20260905110244 | 80 | 146 | 0.0 | 0.0 | 0.00 | 0.00 | 0.00 | 89 | 1011.5 |
| 20260905105740 | 80 | 130 | 0.0 | 0.0 | 0.00 | 0.00 | 0.00 | 89 | 1011.5 |
| 20260905105239 | 80 | 118 | 0.0 | 0.0 | 0.00 | 0.00 | 0.00 | 89 | 1011.4 |
| 20260905104733 | 80 | 119 | 0.0 | 0.0 | 0.00 | 0.00 | 0.00 | 89 | 1011.3 |
| 20260905104230 | 80 | 137 | 0.0 | 0.0 | 0.00 | 0.00 | 0.00 | 89 | 1011.4 |
| 20260905103724 | 80 | 178 | 1.0 | 1.0 | 0.00 | 0.00 | 0.00 | 89 | 1011.5 |
| 20260905103220 | 80 | 165 | 0.0 | 1.0 | 0.00 | 0.00 | 0.00 | 89 | 1011.4 |
| 20260905102715 | 80 | 174 | 0.0 | 0.0 | 0.00 | 0.00 | 0.00 | 88 | 1011.4 |
| 20260905102212 | 80 | 171 | 0.0 | 0.0 | 0.00 | 0.00 | 0.00 | 88 | 1011.5 |
| 20260905101711 | 80 | 172 | 1.0 | 2.0 | 0.00 | 0.00 | 0.00 | 88 | 1011.5 |
| 20260905101209 | 81 | 335 | 2.0 | 2.0 | 0.00 | 0.00 | 0.00 | 88 | 1011.6 |
| 20260905100705 | 81 | 320 | 2.0 | 3.0 | 0.00 | 0.00 | 0.00 | 88 | 1011.5 |
| 20260905100200 | 81 | 139 | 1.0 | 2.0 | 0.00 | 0.00 | 0.00 | 88 | 1011.7 |
| 20260905095700 | 81 | 106 | 2.0 | 2.0 | 0.00 | 0.00 | 0.00 | 87 | 1011.5 |
| 20260905095154 | 81 | 190 | 0.0 | 0.0 | 0.00 | 0.00 | 0.00 | 87 | 1011.7 |
| 20260905094650 | 81 | 176 | 1.0 | 1.0 | 0.00 | 0.00 | 0.00 | 87 | 1011.5 |
| 20260905094149 | 81 | 265 | 1.0 | 2.0 | 0.00 | 0.00 | 0.00 | 87 | 1011.6 |
| 20260905093644 | 81 | 114 | 2.0 | 2.0 | 0.00 | 0.00 | 0.00 | 87 | 1011.5 |
| 20260905093140 | 81 | 106 | 0.0 | 2.0 | 0.00 | 0.00 | 0.00 | 87 | 1011.4 |
| 20260905092640 | 81 | 162 | 0.0 | 0.0 | 0.00 | 0.00 | 0.00 | 86 | 1011.6 |
| 20260905092136 | 81 | 180 | 0.0 | 0.0 | 0.00 | 0.00 | 0.00 | 86 | 1011.3 |
| 20260905091635 | 81 | 177 | 0.0 | 0.0 | 0.00 | 0.00 | 0.00 | 86 | 1011.4 |
| 20260905091135 | 81 | 174 | 0.0 | 0.0 | 0.00 | 0.00 | 0.00 | 86 | 1011.6 |
| 20260905090630 | 82 | 179 | 0.0 | 1.0 | 0.00 | 0.00 | 0.00 | 85 | 1011.5 |
| 20260905090125 | 82 | 198 | 2.0 | 2.0 | 0.00 | 0.00 | 0.00 | 85 | 1011.4 |
| 20260905085624 | 82 | 198 | 2.0 | 2.0 | 0.00 | 0.00 | 0.00 | 85 | 1011.2 |
| 20260905085120 | 82 | 191 | 2.0 | 2.0 | 0.00 | 0.00 | 0.00 | 85 | 1011.3 |
| 20260905084619 | 82 | 219 | 1.0 | 2.0 | 0.00 | 0.00 | 0.00 | 85 | 1011.3 |
| 20260905084115 | 82 | 208 | 2.0 | 2.0 | 0.00 | 0.00 | 0.00 | 85 | 1011.2 |
| 20260905083614 | 82 | 188 | 1.0 | 2.0 | 0.00 | 0.00 | 0.00 | 85 | 1011.4 |
| 20260905083111 | 82 | 199 | 1.0 | 2.0 | 0.00 | 0.00 | 0.00 | 85 | 1011.3 |
| 20260905082606 | 82 | 175 | 0.0 | 1.0 | 0.00 | 0.00 | 0.00 | 85 | 1011.3 |
| 20260905082102 | 82 | 196 | 1.0 | 1.0 | 0.00 | 0.00 | 0.00 | 85 | 1011.4 |
| 20260905081601 | 82 | 169 | 2.0 | 2.0 | 0.00 | 0.00 | 0.00 | 85 | 1011.3 |
| 20260905081056 | 82 | 197 | 3.0 | 3.0 | 0.00 | 0.00 | 0.00 | 85 | 1011.3 |
| 20260905080556 | 82 | 183 | 0.0 | 2.0 | 0.00 | 0.00 | 0.00 | 85 | 1011.3 |
| 20260905080052 | 82 | 191 | 2.0 | 3.0 | 0.00 | 0.00 | 0.00 | 85 | 1011.4 |
| 20260905075550 | 82 | 185 | 1.0 | 2.0 | 0.00 | 0.00 | 0.00 | 86 | 1011.2 |
| 20260905075050 | 82 | 196 | 2.0 | 2.0 | 0.00 | 0.00 | 0.00 | 86 | 1011.4 |
| 20260905074549 | 82 | 202 | 2.0 | 2.0 | 0.00 | 0.00 | 0.00 | 86 | 1011.6 |
| 20260905074046 | 82 | 179 | 0.0 | 0.0 | 0.00 | 0.00 | 0.00 | 86 | 1011.5 |
| 20260905073541 | 82 | 169 | 0.0 | 0.0 | 0.00 | 0.00 | 0.00 | 86 | 1011.5 |
| 20260905073037 | 82 | 171 | 0.0 | 1.0 | 0.00 | 0.00 | 0.00 | 85 | 1011.7 |
| 20260905072536 | 82 | 163 | 0.0 | 1.0 | 0.00 | 0.00 | 0.00 | 85 | 1011.6 |
| 20260905072031 | 82 | 186 | 0.0 | 0.0 | 0.00 | 0.00 | 0.00 | 85 | 1011.9 |
| 20260905071528 | 82 | 177 | 1.0 | 1.0 | 0.00 | 0.00 | 0.00 | 85 | 1011.7 |
| 20260905071028 | 82 | 167 | 0.0 | 0.0 | 0.00 | 0.00 | 0.00 | 85 | 1011.7 |
| 20260905070523 | 82 | 141 | 0.0 | 0.0 | 0.00 | 0.00 | 0.00 | 85 | 1011.8 |
| 20260905070019 | 82 | 158 | 0.0 | 0.0 | 0.00 | 0.00 | 0.00 | 85 | 1011.9 |
| 20260905065516 | 82 | 157 | 0.0 | 0.0 | 0.00 | 0.00 | 0.00 | 85 | 1012.0 |
| 20260905065012 | 82 | 173 | 2.0 | 2.0 | 0.00 | 0.00 | 0.00 | 85 | 1011.8 |
| 20260905064508 | 82 | 167 | 1.0 | 1.0 | 0.00 | 0.00 | 0.00 | 84 | 1011.7 |
| 20260905064003 | 82 | 196 | 2.0 | 2.0 | 0.00 | 0.00 | 0.00 | 84 | 1012.0 |
| 20260905063502 | 82 | 145 | 1.0 | 2.0 | 0.00 | 0.00 | 0.00 | 84 | 1012.0 |
| 20260905062959 | 83 | 194 | 2.0 | 2.0 | 0.00 | 0.00 | 0.00 | 84 | 1012.1 |
| 20260905062458 | 82 | 156 | 2.0 | 3.0 | 0.00 | 0.00 | 0.00 | 84 | 1012.1 |
| 20260905061953 | 83 | 150 | 1.0 | 1.0 | 0.00 | 0.00 | 0.00 | 84 | 1012.1 |
| 20260905061448 | 83 | 137 | 2.0 | 3.0 | 0.00 | 0.00 | 0.00 | 84 | 1012.3 |
| 20260905060947 | 83 | 158 | 2.0 | 2.0 | 0.00 | 0.00 | 0.00 | 84 | 1012.0 |
| 20260905060443 | 83 | 160 | 4.0 | 4.0 | 0.00 | 0.00 | 0.00 | 84 | 1012.0 |
| 20260905055943 | 83 | 163 | 4.0 | 4.0 | 0.00 | 0.00 | 0.00 | 84 | 1012.1 |
| 20260905055443 | 83 | 170 | 4.0 | 4.0 | 0.00 | 0.00 | 0.00 | 84 | 1012.0 |
| 20260905054942 | 83 | 173 | 4.0 | 6.0 | 0.00 | 0.00 | 0.00 | 83 | 1012.2 |
| 20260905054438 | 83 | 167 | 4.0 | 4.0 | 0.00 | 0.00 | 0.00 | 83 | 1012.1 |
| 20260905053938 | 83 | 178 | 2.0 | 3.0 | 0.00 | 0.00 | 0.00 | 83 | 1012.1 |
| 20260905053433 | 83 | 184 | 2.0 | 2.0 | 0.00 | 0.00 | 0.00 | 83 | 1012.3 |
| 20260905052929 | 83 | 167 | 2.0 | 2.0 | 0.00 | 0.00 | 0.00 | 83 | 1012.2 |
| 20260905052428 | 83 | 158 | 2.0 | 2.0 | 0.00 | 0.00 | 0.00 | 82 | 1012.3 |
| 20260905051928 | 83 | 204 | 2.0 | 3.0 | 0.00 | 0.00 | 0.00 | 82 | 1012.4 |
| 20260905051424 | 83 | 171 | 2.0 | 2.0 | 0.00 | 0.00 | 0.00 | 82 | 1012.3 |
| 20260905050922 | 83 | 197 | 4.0 | 6.0 | 0.00 | 0.00 | 0.00 | 82 | 1012.2 |
| 20260905050417 | 83 | 176 | 2.0 | 3.0 | 0.00 | 0.00 | 0.00 | 82 | 1012.2 |
| 20260905045912 | 83 | 190 | 3.0 | 4.0 | 0.00 | 0.27 | 0.27 | 81 | 1012.1 |
| 20260905045407 | 83 | 168 | 2.0 | 3.0 | 0.00 | 0.27 | 0.27 | 81 | 1012.1 |
| 20260905044903 | 84 | 190 | 2.0 | 3.0 | 0.00 | 0.27 | 0.27 | 81 | 1012.2 |
| 20260905044358 | 84 | 177 | 4.0 | 4.0 | 0.00 | 0.27 | 0.27 | 81 | 1011.9 |
| 20260905043856 | 84 | 139 | 4.0 | 4.0 | 0.00 | 0.27 | 0.27 | 81 | 1012.2 |
| 20260905043351 | 84 | 159 | 4.0 | 4.0 | 0.00 | 0.27 | 0.27 | 81 | 1012.3 |
| 20260905042846 | 84 | 149 | 2.0 | 2.0 | 0.00 | 0.27 | 0.27 | 81 | 1012.1 |
| 20260905042346 | 84 | 179 | 4.0 | 6.0 | 0.00 | 0.27 | 0.27 | 80 | 1012.4 |
| 20260905041841 | 84 | 177 | 2.0 | 4.0 | 0.00 | 0.27 | 0.27 | 80 | 1012.4 |
| 20260905041338 | 84 | 143 | 5.0 | 6.0 | 0.00 | 0.27 | 0.27 | 80 | 1012.2 |
| 20260905040837 | 84 | 157 | 2.0 | 4.0 | 0.00 | 0.27 | 0.27 | 80 | 1012.5 |
| 20260905040337 | 84 | 152 | 4.0 | 6.0 | 0.00 | 0.27 | 0.27 | 80 | 1012.5 |
| 20260905035836 | 84 | 171 | 5.0 | 7.0 | 0.00 | 0.27 | 0.27 | 80 | 1012.3 |
| 20260905035332 | 84 | 167 | 2.0 | 2.0 | 0.00 | 0.27 | 0.27 | 79 | 1012.5 |
| 20260905034828 | 84 | 189 | 4.0 | 6.0 | 0.00 | 0.27 | 0.27 | 79 | 1012.5 |
| 20260905034323 | 84 | 153 | 1.0 | 2.0 | 0.00 | 0.27 | 0.27 | 79 | 1012.5 |
| 20260905033822 | 84 | 163 | 2.0 | 3.0 | 0.00 | 0.27 | 0.27 | 79 | 1012.6 |
| 20260905033317 | 85 | 169 | 2.0 | 3.0 | 0.00 | 0.27 | 0.27 | 79 | 1012.6 |
| 20260905032817 | 85 | 151 | 5.0 | 6.0 | 0.00 | 0.27 | 0.27 | 78 | 1012.3 |
| 20260905032312 | 85 | 159 | 2.0 | 4.0 | 0.00 | 0.27 | 0.27 | 78 | 1012.6 |
| 20260905031808 | 85 | 198 | 2.0 | 3.0 | 0.00 | 0.27 | 0.27 | 78 | 1012.4 |
| 20260905031303 | 85 | 188 | 2.0 | 3.0 | 0.00 | 0.27 | 0.27 | 78 | 1012.6 |
| 20260905030759 | 85 | 165 | 2.0 | 7.0 | 0.00 | 0.27 | 0.27 | 77 | 1012.7 |
| 20260905030254 | 85 | 173 | 6.0 | 8.0 | 0.00 | 0.27 | 0.27 | 77 | 1012.3 |
| 20260905025753 | 85 | 184 | 5.0 | 7.0 | 0.00 | 0.27 | 0.27 | 77 | 1012.4 |
| 20260905025249 | 86 | 154 | 7.0 | 10.0 | 0.00 | 0.27 | 0.27 | 76 | 1012.5 |
| 20260905024745 | 86 | 157 | 5.0 | 8.0 | 0.00 | 0.27 | 0.27 | 76 | 1012.4 |
| 20260905024241 | 86 | 195 | 7.0 | 9.0 | 0.00 | 0.27 | 0.27 | 75 | 1012.5 |
| 20260905023741 | 86 | 153 | 2.0 | 3.0 | 0.00 | 0.27 | 0.27 | 75 | 1012.5 |
| 20260905023236 | 86 | 180 | 4.0 | 6.0 | 0.00 | 0.27 | 0.27 | 75 | 1012.3 |
| 20260905022735 | 86 | 159 | 3.0 | 6.0 | 0.00 | 0.27 | 0.27 | 75 | 1012.3 |
| 20260905022231 | 86 | 119 | 2.0 | 4.0 | 0.00 | 0.27 | 0.27 | 75 | 1012.2 |
| 20260905021730 | 86 | 132 | 4.0 | 6.0 | 0.00 | 0.27 | 0.27 | 74 | 1012.1 |
| 20260905021225 | 86 | 151 | 4.0 | 8.0 | 0.00 | 0.27 | 0.27 | 74 | 1012.0 |
| 20260905020720 | 87 | 140 | 2.0 | 4.0 | 0.00 | 0.27 | 0.27 | 74 | 1012.1 |
| 20260905020216 | 87 | 166 | 1.0 | 4.0 | 0.00 | 0.27 | 0.27 | 74 | 1012.1 |
| 20260905015714 | 87 | 158 | 2.0 | 6.0 | 0.00 | 0.27 | 0.27 | 74 | 1011.9 |
| 20260905015215 | 87 | 161 | 4.0 | 4.0 | 0.00 | 0.27 | 0.27 | 73 | 1011.9 |
| 20260905014713 | 87 | 155 | 4.0 | 7.0 | 0.00 | 0.27 | 0.27 | 72 | 1011.7 |
| 20260905014209 | 88 | 131 | 3.0 | 8.0 | 0.00 | 0.27 | 0.27 | 71 | 1011.8 |
| 20260905013705 | 88 | 148 | 2.0 | 2.0 | 0.00 | 0.27 | 0.27 | 70 | 1011.6 |
| 20260905013200 | 88 | 145 | 5.0 | 6.0 | 0.00 | 0.27 | 0.27 | 70 | 1011.6 |
| 20260905012656 | 88 | 170 | 6.0 | 8.0 | 0.00 | 0.27 | 0.27 | 69 | 1011.4 |
| 20260905012152 | 88 | 161 | 2.0 | 4.0 | 0.00 | 0.27 | 0.27 | 69 | 1011.6 |
| 20260905011648 | 88 | 151 | 4.0 | 6.0 | 0.00 | 0.27 | 0.27 | 69 | 1011.4 |
| 20260905011144 | 88 | 145 | 5.0 | 6.0 | 0.00 | 0.27 | 0.27 | 69 | 1011.3 |
| 20260905010638 | 88 | 111 | 4.0 | 4.0 | 0.00 | 0.27 | 0.27 | 69 | 1011.4 |
| 20260905010134 | 89 | 154 | 6.0 | 9.0 | 0.00 | 0.27 | 0.27 | 68 | 1011.4 |
| 20260905005630 | 89 | 134 | 5.0 | 7.0 | 0.00 | 0.27 | 0.27 | 67 | 1011.4 |
| 20260905005125 | 89 | 145 | 3.0 | 7.0 | 0.00 | 0.27 | 0.27 | 67 | 1011.1 |
| 20260905004625 | 89 | 116 | 3.0 | 7.0 | 0.00 | 0.27 | 0.27 | 66 | 1011.5 |
| 20260905004120 | 89 | 138 | 3.0 | 6.0 | 0.00 | 0.27 | 0.27 | 65 | 1011.3 |
| 20260905003616 | 89 | 152 | 2.0 | 8.0 | 0.00 | 0.27 | 0.27 | 65 | 1011.3 |
| 20260905003112 | 89 | 185 | 1.0 | 2.0 | 0.00 | 0.27 | 0.27 | 64 | 1011.4 |
| 20260905002607 | 89 | 130 | 1.0 | 7.0 | 0.00 | 0.27 | 0.27 | 64 | 1011.2 |
| 20260905002102 | 90 | 135 | 6.0 | 9.0 | 0.00 | 0.27 | 0.27 | 63 | 1010.8 |
| 20260905001557 | 90 | 158 | 8.0 | 13.0 | 0.00 | 0.27 | 0.27 | 62 | 1010.9 |
| 20260905001056 | 90 | 153 | 8.0 | 13.0 | 0.00 | 0.27 | 0.27 | 62 | 1010.7 |
| 20260905000551 | 90 | 149 | 5.0 | 8.0 | 0.00 | 0.27 | 0.27 | 63 | 1010.7 |
| 20260905000048 | 90 | 175 | 9.0 | 13.0 | 0.00 | 0.27 | 0.27 | 62 | 1010.9 |
| 20260904235542 | 90 | 163 | 9.0 | 10.0 | 0.00 | 0.27 | 0.27 | 61 | 1010.8 |
| 20260904235042 | 91 | 155 | 10.0 | 11.0 | 0.00 | 0.27 | 0.27 | 60 | 1010.9 |
| 20260904234542 | 91 | 153 | 3.0 | 10.0 | 0.00 | 0.27 | 0.27 | 60 | 1010.8 |
| 20260904234038 | 91 | 147 | 6.0 | 8.0 | 0.00 | 0.27 | 0.27 | 60 | 1010.9 |
| 20260904233533 | 91 | 192 | 10.0 | 13.0 | 0.00 | 0.27 | 0.27 | 60 | 1010.7 |
| 20260904233029 | 92 | 194 | 4.0 | 13.0 | 0.00 | 0.27 | 0.27 | 60 | 1010.7 |
| 20260904232526 | 93 | 133 | 3.0 | 4.0 | 0.00 | 0.27 | 0.27 | 59 | 1010.8 |
| 20260904232022 | 93 | 143 | 3.0 | 7.0 | 0.00 | 0.27 | 0.27 | 59 | 1010.7 |
| 20260904231518 | 93 | 170 | 4.0 | 8.0 | 0.00 | 0.27 | 0.27 | 59 | 1010.8 |
| 20260904231012 | 92 | 168 | 7.0 | 10.0 | 0.00 | 0.27 | 0.27 | 59 | 1010.7 |
| 20260904230511 | 92 | 191 | 8.0 | 10.0 | 0.00 | 0.27 | 0.27 | 60 | 1010.7 |
| 20260904230007 | 92 | 179 | 4.0 | 7.0 | 0.00 | 0.27 | 0.27 | 60 | 1010.7 |
| 20260904225504 | 93 | 129 | 5.0 | 8.0 | 0.00 | 0.27 | 0.27 | 60 | 1010.7 |
| 20260904225004 | 94 | 180 | 3.0 | 8.0 | 0.00 | 0.27 | 0.27 | 57 | 1010.6 |
| 20260904224459 | 95 | 87 | 3.0 | 4.0 | 0.00 | 0.27 | 0.27 | 53 | 1010.6 |
| 20260904223959 | 97 | 169 | 4.0 | 6.0 | 0.00 | 0.27 | 0.27 | 51 | 1010.7 |
| 20260904223458 | 96 | 172 | 1.0 | 3.0 | 0.00 | 0.27 | 0.27 | 47 | 1010.6 |
| 20260904222954 | 97 | 99 | 1.0 | 2.0 | 0.00 | 0.27 | 0.27 | 46 | 1010.6 |
| 20260904222449 | 98 | 192 | 2.0 | 8.0 | 0.00 | 0.27 | 0.27 | 47 | 1010.7 |
| 20260904221944 | 97 | 153 | 2.0 | 3.0 | 0.00 | 0.27 | 0.27 | 45 | 1010.5 |
| 20260904221438 | 96 | 181 | 1.0 | 3.0 | 0.00 | 0.27 | 0.27 | 47 | 1010.7 |
| 20260904220934 | 96 | 54 | 3.0 | 6.0 | 0.00 | 0.27 | 0.27 | 48 | 1010.8 |
| 20260904220434 | 97 | 150 | 0.0 | 1.0 | 0.00 | 0.27 | 0.27 | 46 | 1010.9 |
| 20260904215929 | 97 | 169 | 3.0 | 6.0 | 0.00 | 0.27 | 0.27 | 46 | 1011.0 |
| 20260904215424 | 96 | 124 | 2.0 | 4.0 | 0.00 | 0.27 | 0.27 | 47 | 1010.9 |
| 20260904214920 | 96 | 136 | 2.0 | 3.0 | 0.00 | 0.27 | 0.27 | 48 | 1011.0 |
| 20260904214415 | 96 | 178 | 3.0 | 4.0 | 0.00 | 0.27 | 0.27 | 48 | 1010.8 |
| 20260904213914 | 96 | 150 | 2.0 | 3.0 | 0.00 | 0.27 | 0.27 | 49 | 1011.0 |
| 20260904213409 | 96 | 144 | 5.0 | 6.0 | 0.00 | 0.27 | 0.27 | 48 | 1010.9 |
| 20260904212905 | 97 | 157 | 2.0 | 4.0 | 0.00 | 0.27 | 0.27 | 48 | 1011.1 |
| 20260904212404 | 96 | 167 | 2.0 | 3.0 | 0.00 | 0.27 | 0.27 | 49 | 1011.1 |
| 20260904211900 | 97 | 150 | 0.0 | 2.0 | 0.00 | 0.27 | 0.27 | 48 | 1011.1 |
| 20260904211355 | 96 | 230 | 2.0 | 3.0 | 0.00 | 0.27 | 0.27 | 49 | 1011.3 |
| 20260904210849 | 95 | 190 | 4.0 | 6.0 | 0.00 | 0.27 | 0.27 | 49 | 1011.1 |
| 20260904210349 | 96 | 92 | 2.0 | 4.0 | 0.00 | 0.27 | 0.27 | 49 | 1011.2 |
| 20260904205845 | 96 | 207 | 2.0 | 4.0 | 0.00 | 0.27 | 0.27 | 48 | 1011.4 |
| 20260904205341 | 95 | 200 | 2.0 | 6.0 | 0.00 | 0.27 | 0.27 | 51 | 1011.4 |
| 20260904204838 | 96 | 188 | 5.0 | 7.0 | 0.00 | 0.27 | 0.27 | 49 | 1011.8 |
| 20260904204333 | 96 | 71 | 1.0 | 2.0 | 0.00 | 0.27 | 0.27 | 49 | 1011.8 |
| 20260904203829 | 97 | 173 | 1.0 | 2.0 | 0.00 | 0.27 | 0.27 | 49 | 1011.6 |
| 20260904203325 | 95 | 169 | 1.0 | 2.0 | 0.00 | 0.27 | 0.27 | 50 | 1011.9 |
| 20260904202821 | 94 | 128 | 3.0 | 3.0 | 0.00 | 0.27 | 0.27 | 51 | 1012.1 |
| 20260904202317 | 92 | 154 | 0.0 | 1.0 | 0.00 | 0.27 | 0.27 | 54 | 1012.2 |
| 20260904201813 | 93 | 210 | 2.0 | 4.0 | 0.00 | 0.27 | 0.27 | 53 | 1012.3 |
| 20260904201313 | 95 | 171 | 4.0 | 6.0 | 0.00 | 0.27 | 0.27 | 51 | 1012.1 |
| 20260904200809 | 93 | 152 | 0.0 | 0.0 | 0.00 | 0.27 | 0.27 | 56 | 1012.2 |
| 20260904200307 | 94 | 159 | 1.0 | 3.0 | 0.00 | 0.27 | 0.27 | 55 | 1012.3 |
| 20260904195807 | 94 | 187 | 6.0 | 7.0 | 0.00 | 0.27 | 0.27 | 55 | 1012.2 |
| 20260904195306 | 94 | 169 | 4.0 | 6.0 | 0.00 | 0.27 | 0.27 | 56 | 1012.3 |
| 20260904194801 | 94 | 214 | 2.0 | 3.0 | 0.00 | 0.27 | 0.27 | 58 | 1012.4 |
| 20260904194259 | 93 | 215 | 1.0 | 3.0 | 0.00 | 0.27 | 0.27 | 59 | 1012.4 |
| 20260904193755 | 93 | 228 | 1.0 | 3.0 | 0.00 | 0.27 | 0.27 | 59 | 1012.4 |
| 20260904193250 | 92 | 97 | 1.0 | 3.0 | 0.00 | 0.27 | 0.27 | 61 | 1012.4 |
| 20260904192746 | 92 | 66 | 3.0 | 4.0 | 0.00 | 0.27 | 0.27 | 62 | 1012.7 |
| 20260904192241 | 92 | 254 | 3.0 | 4.0 | 0.00 | 0.27 | 0.27 | 62 | 1012.6 |
| 20260904191738 | 91 | 296 | 4.0 | 4.0 | 0.00 | 0.27 | 0.27 | 65 | 1012.6 |
| 20260904191234 | 93 | 215 | 2.0 | 3.0 | 0.00 | 0.27 | 0.27 | 63 | 1012.5 |
| 20260904190730 | 91 | 180 | 0.0 | 1.0 | 0.00 | 0.27 | 0.27 | 65 | 1012.9 |
| 20260904190226 | 90 | 185 | 1.0 | 2.0 | 0.00 | 0.27 | 0.27 | 66 | 1013.0 |
| 20260904185722 | 89 | 185 | 0.0 | 1.0 | 0.00 | 0.27 | 0.27 | 72 | 1013.1 |
| 20260904185222 | 88 | 156 | 1.0 | 3.0 | 0.00 | 0.27 | 0.27 | 74 | 1013.4 |
| 20260904184721 | 86 | 213 | 2.0 | 3.0 | 0.00 | 0.27 | 0.27 | 77 | 1013.4 |
| 20260904184217 | 85 | 171 | 1.0 | 2.0 | 0.00 | 0.27 | 0.27 | 81 | 1013.3 |
| 20260904183713 | 83 | 142 | 0.0 | 1.0 | 0.00 | 0.27 | 0.27 | 85 | 1013.2 |
| 20260904183213 | 82 | 271 | 2.0 | 3.0 | 0.00 | 0.27 | 0.27 | 86 | 1013.5 |
| 20260904182708 | 81 | 187 | 2.0 | 2.0 | 0.00 | 0.27 | 0.27 | 88 | 1013.7 |
| 20260904182203 | 81 | 187 | 2.0 | 2.0 | 0.00 | 0.27 | 0.27 | 88 | 1013.9 |
| 20260904181659 | 81 | 217 | 2.0 | 4.0 | 0.07 | 0.27 | 0.27 | 88 | 1014.0 |
| 20260904181158 | 80 | 158 | 0.0 | 0.0 | 0.24 | 0.27 | 0.27 | 88 | 1014.3 |
| 20260904180654 | 80 | 169 | 0.0 | 0.0 | 0.59 | 0.26 | 0.26 | 86 | 1014.1 |
| 20260904180149 | 81 | 149 | 1.0 | 4.0 | 0.31 | 0.21 | 0.21 | 84 | 1014.3 |
| 20260904175648 | 82 | 161 | 4.0 | 7.0 | 0.00 | 0.16 | 0.16 | 83 | 1014.6 |
| 20260904175146 | 82 | 203 | 3.0 | 6.0 | 0.00 | 0.16 | 0.16 | 79 | 1014.3 |
| 20260904174641 | 82 | 147 | 5.0 | 6.0 | 0.00 | 0.16 | 0.16 | 82 | 1014.6 |
| 20260904174138 | 82 | 151 | 0.0 | 0.0 | 0.00 | 0.16 | 0.16 | 83 | 1014.1 |
| 20260904173633 | 81 | 181 | 0.0 | 0.0 | 0.00 | 0.16 | 0.16 | 83 | 1014.0 |
| 20260904173128 | 81 | 151 | 1.0 | 2.0 | 0.00 | 0.16 | 0.16 | 84 | 1014.1 |
| 20260904172625 | 81 | 161 | 0.0 | 1.0 | 0.00 | 0.16 | 0.16 | 84 | 1014.1 |
| 20260904172123 | 81 | 186 | 0.0 | 0.0 | 0.00 | 0.16 | 0.16 | 85 | 1014.2 |
| 20260904171619 | 81 | 49 | 3.0 | 3.0 | 0.07 | 0.16 | 0.16 | 86 | 1014.3 |
| 20260904171114 | 80 | 110 | 2.0 | 2.0 | 0.07 | 0.16 | 0.16 | 87 | 1014.2 |
| 20260904170610 | 80 | 59 | 2.0 | 2.0 | 0.00 | 0.15 | 0.15 | 86 | 1014.4 |
| 20260904170106 | 80 | 273 | 2.0 | 4.0 | 0.12 | 0.15 | 0.15 | 86 | 1014.2 |
| 20260904165605 | 79 | 261 | 3.0 | 6.0 | 0.59 | 0.15 | 0.15 | 85 | 1014.1 |
| 20260904165104 | 79 | 253 | 2.0 | 6.0 | 0.61 | 0.12 | 0.12 | 84 | 1014.2 |
| 20260904164559 | 81 | 238 | 5.0 | 13.0 | 0.24 | 0.05 | 0.05 | 80 | 1013.9 |
| 20260904164055 | 83 | 190 | 2.0 | 4.0 | 0.00 | 0.01 | 0.01 | 77 | 1014.1 |
| 20260904163554 | 84 | 164 | 10.0 | 11.0 | 0.00 | 0.01 | 0.01 | 73 | 1014.0 |
| 20260904163050 | 85 | 209 | 9.0 | 11.0 | 0.00 | 0.01 | 0.01 | 69 | 1014.2 |
| 20260904162550 | 85 | 170 | 6.0 | 9.0 | 0.00 | 0.01 | 0.01 | 71 | 1014.1 |
| 20260904162046 | 88 | 193 | 7.0 | 11.0 | 0.00 | 0.01 | 0.01 | 69 | 1014.1 |
| 20260904161545 | 88 | 152 | 3.0 | 4.0 | 0.00 | 0.01 | 0.01 | 73 | 1014.0 |
| 20260904161041 | 88 | 126 | 4.0 | 7.0 | 0.00 | 0.01 | 0.01 | 73 | 1013.8 |
| 20260904160536 | 88 | 123 | 3.0 | 6.0 | 0.00 | 0.01 | 0.01 | 73 | 1013.9 |
| 20260904160032 | 89 | 106 | 4.0 | 7.0 | 0.00 | 0.01 | 0.01 | 72 | 1013.6 |
| 20260904155531 | 89 | 158 | 0.0 | 2.0 | 0.00 | 0.01 | 0.01 | 72 | 1013.5 |
| 20260904155026 | 90 | 136 | 3.0 | 8.0 | 0.00 | 0.01 | 0.01 | 71 | 1013.5 |
| 20260904154520 | 91 | 162 | 2.0 | 2.0 | 0.00 | 0.01 | 0.01 | 70 | 1013.6 |
| 20260904154015 | 92 | 118 | 2.0 | 4.0 | 0.00 | 0.01 | 0.01 | 68 | 1013.6 |
| 20260904153514 | 93 | 170 | 0.0 | 2.0 | 0.00 | 0.01 | 0.01 | 65 | 1013.5 |
| 20260904153011 | 93 | 143 | 0.0 | 3.0 | 0.00 | 0.01 | 0.01 | 66 | 1013.2 |
| 20260904152506 | 92 | 171 | 2.0 | 3.0 | 0.00 | 0.01 | 0.01 | 67 | 1013.3 |
| 20260904152001 | 91 | 117 | 0.0 | 2.0 | 0.00 | 0.01 | 0.01 | 67 | 1013.4 |
| 20260904151457 | 89 | 154 | 1.0 | 3.0 | 0.00 | 0.01 | 0.01 | 70 | 1013.4 |
| 20260904150956 | 89 | 124 | 1.0 | 3.0 | 0.00 | 0.01 | 0.01 | 73 | 1013.3 |
| 20260904150451 | 89 | 136 | 1.0 | 2.0 | 0.00 | 0.01 | 0.01 | 74 | 1013.3 |
| 20260904145950 | 90 | 122 | 1.0 | 3.0 | 0.00 | 0.01 | 0.01 | 73 | 1013.2 |
| 20260904145446 | 91 | 195 | 0.0 | 2.0 | 0.00 | 0.01 | 0.01 | 71 | 1013.2 |